Hourly Weather Chomiaza

Today, 8 July, Wednesday

Time Temperature Precipitation Wind Pressure Humidity
00:00 +13°C° 0 mm 3 mps 753 mmHg 73%
01:00 +13°C° 0 mm 3 mps 752 mmHg 71%
02:00 +13°C° 0.1 mm 3 mps 752 mmHg 77%
03:00 +13°C° 0.1 mm 3 mps 752 mmHg 83%
04:00 +13°C° 0.1 mm 2 mps 752 mmHg 89%
05:00 +12°C° 0.2 mm 3 mps 752 mmHg 89%
06:00 +12°C° 0.2 mm 3 mps 752 mmHg 90%
07:00 +12°C° 0.2 mm 3 mps 752 mmHg 90%
08:00 +12°C° 0.1 mm 3 mps 752 mmHg 89%
09:00 +14°C° 0.1 mm 2 mps 752 mmHg 88%
10:00 +14°C° 0.1 mm 2 mps 753 mmHg 88%
11:00 +14°C° 0.2 mm 2 mps 752 mmHg 87%
12:00 +14°C° 0.2 mm 3 mps 752 mmHg 87%
13:00 +14°C° 0.2 mm 3 mps 752 mmHg 87%
14:00 +14°C° 0.3 mm 3 mps 752 mmHg 87%
15:00 +14°C° 0.3 mm 3 mps 752 mmHg 88%
16:00 +14°C° 0.3 mm 3 mps 752 mmHg 88%
17:00 +15°C° 0 mm 2 mps 752 mmHg 88%
18:00 +15°C° 0 mm 2 mps 752 mmHg 88%
19:00 +15°C° 0 mm 2 mps 752 mmHg 87%
20:00 +14°C° 0 mm 2 mps 752 mmHg 90%
21:00 +13°C° 0 mm 2 mps 753 mmHg 92%
22:00 +12°C° 0 mm 2 mps 753 mmHg 94%
23:00 +12°C° 0 mm 2 mps 753 mmHg 95%

Tomorrow, 9 July, Thursday

Time Temperature Precipitation Wind Pressure Humidity
00:00 +12°C° 0 mm 2 mps 753 mmHg 95%
01:00 +12°C° 0 mm 2 mps 754 mmHg 95%
02:00 +10°C° 0 mm 2 mps 754 mmHg 95%
03:00 +10°C° 0 mm 2 mps 754 mmHg 95%
04:00 +10°C° 0 mm 2 mps 754 mmHg 95%
05:00 +13°C° 0 mm 2 mps 754 mmHg 90%
06:00 +14°C° 0 mm 2 mps 754 mmHg 86%
07:00 +16°C° 0 mm 2 mps 754 mmHg 81%
08:00 +17°C° 0 mm 2 mps 754 mmHg 75%
09:00 +19°C° 0 mm 2 mps 754 mmHg 70%
10:00 +20°C° 0 mm 2 mps 754 mmHg 64%
11:00 +19°C° 0 mm 3 mps 754 mmHg 67%
12:00 +19°C° 0 mm 3 mps 753 mmHg 71%
13:00 +18°C° 0 mm 4 mps 753 mmHg 74%
14:00 +19°C° 0 mm 4 mps 752 mmHg 71%
15:00 +21°C° 0 mm 4 mps 752 mmHg 68%
16:00 +22°C° 0 mm 4 mps 752 mmHg 65%
17:00 +21°C° 0 mm 3 mps 751 mmHg 71%
18:00 +20°C° 0 mm 3 mps 751 mmHg 76%
19:00 +19°C° 0 mm 3 mps 751 mmHg 82%
20:00 +19°C° 0 mm 2 mps 751 mmHg 85%
21:00 +18°C° 0 mm 2 mps 751 mmHg 88%
22:00 +17°C° 0 mm 2 mps 751 mmHg 91%
23:00 +17°C° 0 mm 2 mps 751 mmHg 92%

Day after tomorrow, 10 July, Friday

Time Temperature Precipitation Wind Pressure Humidity
00:00 +17°C° 0 mm 2 mps 751 mmHg 92%
01:00 +17°C° 0 mm 2 mps 750 mmHg 92%
02:00 +17°C° 0 mm 2 mps 750 mmHg 92%
03:00 +17°C° 0 mm 2 mps 750 mmHg 92%
04:00 +17°C° 0 mm 2 mps 750 mmHg 93%
05:00 +18°C° 0 mm 3 mps 750 mmHg 87%
06:00 +20°C° 0 mm 3 mps 749 mmHg 82%
07:00 +22°C° 0 mm 4 mps 749 mmHg 77%
08:00 +23°C° 0.3 mm 4 mps 749 mmHg 71%
09:00 +26°C° 0.3 mm 5 mps 749 mmHg 66%
10:00 +27°C° 0.3 mm 5 mps 749 mmHg 61%
11:00 +28°C° 0.1 mm 5 mps 749 mmHg 58%
12:00 +28°C° 0.1 mm 5 mps 749 mmHg 54%
13:00 +29°C° 0.1 mm 5 mps 748 mmHg 51%
14:00 +29°C° 0 mm 5 mps 748 mmHg 53%
15:00 +29°C° 0 mm 5 mps 748 mmHg 55%
16:00 +29°C° 0 mm 5 mps 748 mmHg 56%
17:00 +27°C° 0.8 mm 5 mps 748 mmHg 66%
18:00 +25°C° 0.8 mm 4 mps 748 mmHg 77%
19:00 +21°C° 0.8 mm 4 mps 748 mmHg 87%
20:00 +20°C° 0.5 mm 3 mps 748 mmHg 88%
21:00 +20°C° 0.5 mm 2 mps 749 mmHg 89%
22:00 +20°C° 0.5 mm 1 mps 749 mmHg 91%
23:00 +18°C° 0 mm 2 mps 749 mmHg 90%

11 July, Saturday

Time Temperature Precipitation Wind Pressure Humidity
00:00 +18°C° 0 mm 3 mps 750 mmHg 88%
01:00 +18°C° 0 mm 3 mps 750 mmHg 87%
02:00 +17°C° 0 mm 4 mps 751 mmHg 89%
03:00 +15°C° 0 mm 4 mps 751 mmHg 91%
04:00 +15°C° 0 mm 5 mps 751 mmHg 93%
05:00 +15°C° 0 mm 5 mps 752 mmHg 91%
06:00 +14°C° 0 mm 4 mps 753 mmHg 88%
07:00 +14°C° 0 mm 4 mps 753 mmHg 85%
08:00 +15°C° 0 mm 4 mps 754 mmHg 80%
09:00 +17°C° 0 mm 4 mps 754 mmHg 76%
10:00 +17°C° 0 mm 4 mps 755 mmHg 71%
11:00 +18°C° 0 mm 4 mps 755 mmHg 68%
12:00 +18°C° 0 mm 4 mps 755 mmHg 64%
13:00 +19°C° 0 mm 4 mps 755 mmHg 61%
14:00 +19°C° 0 mm 4 mps 755 mmHg 58%
15:00 +19°C° 0 mm 3 mps 755 mmHg 56%
16:00 +19°C° 0 mm 3 mps 755 mmHg 53%
17:00 +19°C° 0 mm 2 mps 755 mmHg 58%
18:00 +18°C° 0 mm 2 mps 756 mmHg 62%
19:00 +18°C° 0 mm 1 mps 756 mmHg 67%
20:00 +16°C° 0 mm 2 mps 756 mmHg 70%
21:00 +15°C° 0 mm 2 mps 757 mmHg 74%
22:00 +14°C° 0 mm 2 mps 757 mmHg 77%
23:00 +12°C° 0 mm 3 mps 757 mmHg 80%

12 July, Sunday

Time Temperature Precipitation Wind Pressure Humidity
00:00 +12°C° 0 mm 3 mps 757 mmHg 84%
01:00 +11°C° 0 mm 3 mps 757 mmHg 87%
02:00 +11°C° 0 mm 3 mps 757 mmHg 89%
03:00 +10°C° 0 mm 3 mps 757 mmHg 92%
04:00 +10°C° 0 mm 3 mps 757 mmHg 94%
05:00 +11°C° 0 mm 3 mps 758 mmHg 87%
06:00 +12°C° 0 mm 4 mps 758 mmHg 81%
07:00 +14°C° 0 mm 4 mps 758 mmHg 75%
08:00 +15°C° 0 mm 4 mps 758 mmHg 69%
09:00 +16°C° 0 mm 5 mps 759 mmHg 63%
10:00 +17°C° 0 mm 5 mps 759 mmHg 57%
11:00 +19°C° 0 mm 5 mps 758 mmHg 54%
12:00 +20°C° 0 mm 5 mps 758 mmHg 50%
13:00 +20°C° 0 mm 5 mps 758 mmHg 46%
14:00 +20°C° 0 mm 5 mps 758 mmHg 46%
15:00 +20°C° 0 mm 4 mps 758 mmHg 47%
16:00 +20°C° 0 mm 4 mps 758 mmHg 47%
17:00 +19°C° 0 mm 3 mps 758 mmHg 52%
18:00 +18°C° 0 mm 3 mps 758 mmHg 58%
19:00 +18°C° 0 mm 2 mps 758 mmHg 63%
20:00 +16°C° 0 mm 2 mps 758 mmHg 66%
21:00 +15°C° 0 mm 1 mps 758 mmHg 69%
22:00 +13°C° 0 mm 1 mps 759 mmHg 71%
23:00 +13°C° 0 mm 1 mps 759 mmHg 73%

13 July, Monday

Time Temperature Precipitation Wind Pressure Humidity
00:00 +12°C° 0 mm 2 mps 758 mmHg 75%
01:00 +12°C° 0 mm 2 mps 758 mmHg 78%
02:00 +10°C° 0 mm 2 mps 758 mmHg 80%
03:00 +10°C° 0 mm 2 mps 758 mmHg 82%
04:00 +10°C° 0 mm 2 mps 758 mmHg 83%
05:00 +12°C° 0 mm 2 mps 758 mmHg 79%
06:00 +14°C° 0 mm 2 mps 758 mmHg 75%
07:00 +16°C° 0 mm 2 mps 758 mmHg 70%
08:00 +17°C° 0 mm 2 mps 758 mmHg 65%
09:00 +18°C° 0 mm 2 mps 758 mmHg 60%
10:00 +20°C° 0 mm 2 mps 758 mmHg 55%
11:00 +20°C° 0 mm 2 mps 757 mmHg 53%
12:00 +20°C° 0 mm 2 mps 757 mmHg 51%
13:00 +21°C° 0 mm 2 mps 757 mmHg 50%
14:00 +21°C° 0 mm 2 mps 756 mmHg 49%
15:00 +22°C° 0 mm 1 mps 756 mmHg 49%
16:00 +22°C° 0 mm 1 mps 755 mmHg 49%
17:00 +22°C° 0 mm 1 mps 755 mmHg 53%
18:00 +21°C° 0 mm 1 mps 755 mmHg 58%
19:00 +20°C° 0 mm 1 mps 755 mmHg 63%
20:00 +19°C° 0 mm 1 mps 755 mmHg 66%
21:00 +16°C° 0 mm 1 mps 755 mmHg 69%
22:00 +15°C° 0 mm 1 mps 755 mmHg 73%
23:00 +14°C° 0 mm 1 mps 755 mmHg 75%
Show more